contact:dominique.lefevre@mio.osupytheas.fr, maurice.libes@osupytheas.fr, didier.mallarino@osupytheas.fr
Project:EMSO http://www.emso-fr.org/EMSO-France
Depth: 2436.0 m
Title:EMSO Ligure Ouest : Data MII capteur OXYGEN
DateTime,Latitude,Longitude,Optode-Type,Optode_Serial,Oxygen,Saturation_Oxygen,Temperature
DateTime,Latitude,Longitude,Optode-Type,Optode_Serial,µmol.l-1,%,degC
2019-07-18T00:00:08,42.805,6.029,4330,1995,193.284,59.112,13.290
2019-07-18T00:03:08,42.805,6.029,4330,1995,193.320,59.121,13.289
2019-07-18T00:06:08,42.805,6.029,4330,1995,193.327,59.124,13.289
2019-07-18T00:09:08,42.805,6.029,4330,1995,193.319,59.121,13.289
2019-07-18T00:12:08,42.805,6.029,4330,1995,193.344,59.129,13.289
2019-07-18T00:15:08,42.805,6.029,4330,1995,193.316,59.121,13.289
2019-07-18T00:18:08,42.805,6.029,4330,1995,193.266,59.105,13.289
2019-07-18T00:21:08,42.805,6.029,4330,1995,193.269,59.106,13.289
2019-07-18T00:24:08,42.805,6.029,4330,1995,193.344,59.130,13.290
2019-07-18T00:27:08,42.805,6.029,4330,1995,193.322,59.123,13.290
2019-07-18T00:30:08,42.805,6.029,4330,1995,193.334,59.126,13.290
2019-07-18T00:33:08,42.805,6.029,4330,1995,193.345,59.132,13.292
2019-07-18T00:36:08,42.805,6.029,4330,1995,193.324,59.127,13.293
2019-07-18T00:39:08,42.805,6.029,4330,1995,193.332,59.128,13.291
2019-07-18T00:42:08,42.805,6.029,4330,1995,193.393,59.146,13.291
2019-07-18T00:45:08,42.805,6.029,4330,1995,193.341,59.129,13.290
2019-07-18T00:48:08,42.805,6.029,4330,1995,193.393,59.144,13.289
2019-07-18T00:51:08,42.805,6.029,4330,1995,193.327,59.126,13.291
2019-07-18T00:57:08,42.805,6.029,4330,1995,193.331,59.123,13.288
2019-07-18T01:00:08,42.805,6.029,4330,1995,193.296,59.115,13.290
2019-07-18T01:03:08,42.805,6.029,4330,1995,193.338,59.127,13.289
2019-07-18T01:06:08,42.805,6.029,4330,1995,193.292,59.116,13.291
2019-07-18T01:09:08,42.805,6.029,4330,1995,193.324,59.126,13.292
2019-07-18T01:12:08,42.805,6.029,4330,1995,193.205,59.089,13.292
2019-07-18T01:15:08,42.805,6.029,4330,1995,193.293,59.116,13.291
2019-07-18T01:18:08,42.805,6.029,4330,1995,193.265,59.107,13.291
2019-07-18T01:21:08,42.805,6.029,4330,1995,193.307,59.121,13.292
2019-07-18T01:24:08,42.805,6.029,4330,1995,193.367,59.139,13.292
2019-07-18T01:27:08,42.805,6.029,4330,1995,193.275,59.111,13.292
2019-07-18T01:30:08,42.805,6.029,4330,1995,193.330,59.128,13.292
2019-07-18T01:33:08,42.805,6.029,4330,1995,193.212,59.092,13.291
2019-07-18T01:36:08,42.805,6.029,4330,1995,193.276,59.110,13.291
2019-07-18T01:39:08,42.805,6.029,4330,1995,193.272,59.109,13.291
2019-07-18T01:42:08,42.805,6.029,4330,1995,193.325,59.125,13.291
2019-07-18T01:45:08,42.805,6.029,4330,1995,193.289,59.114,13.290
2019-07-18T01:48:08,42.805,6.029,4330,1995,193.277,59.110,13.290
2019-07-18T01:51:08,42.805,6.029,4330,1995,193.252,59.102,13.290
2019-07-18T01:54:08,42.805,6.029,4330,1995,193.262,59.105,13.290
2019-07-18T01:57:08,42.805,6.029,4330,1995,193.269,59.107,13.290
2019-07-18T02:00:08,42.805,6.029,4330,1995,193.266,59.106,13.290
2019-07-18T02:03:08,42.805,6.029,4330,1995,193.266,59.106,13.290
2019-07-18T02:06:08,42.805,6.029,4330,1995,193.242,59.098,13.290
2019-07-18T02:09:08,42.805,6.029,4330,1995,193.264,59.105,13.290
2019-07-18T02:12:08,42.805,6.029,4330,1995,193.315,59.121,13.290
2019-07-18T02:15:08,42.805,6.029,4330,1995,193.223,59.093,13.290
2019-07-18T02:18:08,42.805,6.029,4330,1995,193.320,59.123,13.290
2019-07-18T02:21:08,42.805,6.029,4330,1995,193.258,59.103,13.289
2019-07-18T02:24:08,42.805,6.029,4330,1995,193.287,59.112,13.290
2019-07-18T02:27:08,42.805,6.029,4330,1995,193.284,59.111,13.290
2019-07-18T02:30:08,42.805,6.029,4330,1995,193.242,59.098,13.289
2019-07-18T02:33:08,42.805,6.029,4330,1995,193.286,59.112,13.290
2019-07-18T02:36:08,42.805,6.029,4330,1995,193.218,59.091,13.290
2019-07-18T02:39:08,42.805,6.029,4330,1995,193.274,59.108,13.290
2019-07-18T02:42:08,42.805,6.029,4330,1995,193.294,59.114,13.290
2019-07-18T02:45:08,42.805,6.029,4330,1995,193.247,59.100,13.290
2019-07-18T02:48:08,42.805,6.029,4330,1995,193.327,59.124,13.290
2019-07-18T02:51:08,42.805,6.029,4330,1995,193.296,59.115,13.290
2019-07-18T02:54:08,42.805,6.029,4330,1995,193.275,59.109,13.290
2019-07-18T02:57:08,42.805,6.029,4330,1995,193.315,59.121,13.290
2019-07-18T03:00:08,42.805,6.029,4330,1995,193.316,59.122,13.290
2019-07-18T03:03:08,42.805,6.029,4330,1995,193.321,59.123,13.290
2019-07-18T03:06:08,42.805,6.029,4330,1995,193.259,59.105,13.291
2019-07-18T03:09:08,42.805,6.029,4330,1995,193.326,59.126,13.291
2019-07-18T03:12:08,42.805,6.029,4330,1995,193.336,59.129,13.291
2019-07-18T03:15:08,42.805,6.029,4330,1995,193.294,59.115,13.291
2019-07-18T03:18:08,42.805,6.029,4330,1995,193.363,59.137,13.291
2019-07-18T03:21:08,42.805,6.029,4330,1995,193.277,59.111,13.291
2019-07-18T03:24:08,42.805,6.029,4330,1995,193.337,59.131,13.292
2019-07-18T03:30:08,42.805,6.029,4330,1995,193.262,59.102,13.288
2019-07-18T03:33:08,42.805,6.029,4330,1995,193.269,59.104,13.288
2019-07-18T03:36:08,42.805,6.029,4330,1995,193.254,59.102,13.290
2019-07-18T03:39:08,42.805,6.029,4330,1995,193.287,59.112,13.290
2019-07-18T03:42:08,42.805,6.029,4330,1995,193.248,59.101,13.290
2019-07-18T03:45:08,42.805,6.029,4330,1995,193.240,59.099,13.290
2019-07-18T03:48:08,42.805,6.029,4330,1995,193.253,59.102,13.290
2019-07-18T03:51:08,42.805,6.029,4330,1995,193.303,59.118,13.291
2019-07-18T03:54:08,42.805,6.029,4330,1995,193.256,59.103,13.290
2019-07-18T03:57:08,42.805,6.029,4330,1995,193.232,59.096,13.290
2019-07-18T04:00:08,42.805,6.029,4330,1995,193.318,59.122,13.290
2019-07-18T04:03:08,42.805,6.029,4330,1995,193.347,59.132,13.291
2019-07-18T04:06:08,42.805,6.029,4330,1995,193.278,59.111,13.291
2019-07-18T04:09:08,42.805,6.029,4330,1995,193.274,59.111,13.292
2019-07-18T04:12:08,42.805,6.029,4330,1995,193.205,59.089,13.291
2019-07-18T04:15:08,42.805,6.029,4330,1995,193.282,59.113,13.292
2019-07-18T04:18:08,42.805,6.029,4330,1995,193.239,59.100,13.292
2019-07-18T04:21:08,42.805,6.029,4330,1995,193.272,59.110,13.291
2019-07-18T04:24:08,42.805,6.029,4330,1995,193.302,59.119,13.291
2019-07-18T04:27:08,42.805,6.029,4330,1995,193.273,59.110,13.291
2019-07-18T04:30:08,42.805,6.029,4330,1995,193.308,59.121,13.292
2019-07-18T04:33:08,42.805,6.029,4330,1995,193.273,59.110,13.291
2019-07-18T04:36:08,42.805,6.029,4330,1995,193.244,59.102,13.292
2019-07-18T04:39:08,42.805,6.029,4330,1995,193.275,59.111,13.292
2019-07-18T04:42:08,42.805,6.029,4330,1995,193.307,59.121,13.291
2019-07-18T04:45:08,42.805,6.029,4330,1995,193.356,59.136,13.292
2019-07-18T04:48:08,42.805,6.029,4330,1995,193.336,59.130,13.292
2019-07-18T04:51:08,42.805,6.029,4330,1995,193.279,59.112,13.291
2019-07-18T04:54:08,42.805,6.029,4330,1995,193.288,59.115,13.292
2019-07-18T04:57:08,42.805,6.029,4330,1995,193.274,59.110,13.291
2019-07-18T05:00:08,42.805,6.029,4330,1995,193.305,59.120,13.291
2019-07-18T05:03:08,42.805,6.029,4330,1995,193.257,59.104,13.291
2019-07-18T05:06:08,42.805,6.029,4330,1995,193.304,59.119,13.291
2019-07-18T05:09:08,42.805,6.029,4330,1995,193.290,59.114,13.291
2019-07-18T05:12:08,42.805,6.029,4330,1995,193.254,59.104,13.291
2019-07-18T05:15:08,42.805,6.029,4330,1995,193.233,59.097,13.290
2019-07-18T05:18:08,42.805,6.029,4330,1995,193.264,59.106,13.291
2019-07-18T05:21:08,42.805,6.029,4330,1995,193.236,59.097,13.290
2019-07-18T05:24:08,42.805,6.029,4330,1995,193.270,59.108,13.290
2019-07-18T05:27:08,42.805,6.029,4330,1995,193.243,59.100,13.290
2019-07-18T05:30:08,42.805,6.029,4330,1995,193.288,59.112,13.290
2019-07-18T05:33:08,42.805,6.029,4330,1995,193.261,59.104,13.290
2019-07-18T05:36:08,42.805,6.029,4330,1995,193.217,59.091,13.290
2019-07-18T05:39:08,42.805,6.029,4330,1995,193.287,59.113,13.290
2019-07-18T05:42:08,42.805,6.029,4330,1995,193.235,59.097,13.290
2019-07-18T05:45:08,42.805,6.029,4330,1995,193.204,59.088,13.290
2019-07-18T05:48:08,42.805,6.029,4330,1995,193.216,59.090,13.290
2019-07-18T05:51:08,42.805,6.029,4330,1995,193.223,59.093,13.290
2019-07-18T05:54:08,42.805,6.029,4330,1995,193.227,59.095,13.291
2019-07-18T05:57:08,42.805,6.029,4330,1995,193.183,59.081,13.290
2019-07-18T06:00:08,42.805,6.029,4330,1995,193.255,59.103,13.290
2019-07-18T06:06:08,42.805,6.029,4330,1995,193.238,59.095,13.288
2019-07-18T06:09:08,42.805,6.029,4330,1995,193.226,59.093,13.290
2019-07-18T06:12:08,42.805,6.029,4330,1995,193.224,59.094,13.291
2019-07-18T06:15:08,42.805,6.029,4330,1995,193.246,59.101,13.291
2019-07-18T06:18:08,42.805,6.029,4330,1995,193.234,59.097,13.291
2019-07-18T06:21:08,42.805,6.029,4330,1995,193.198,59.087,13.291
2019-07-18T06:24:08,42.805,6.029,4330,1995,193.167,59.077,13.291
2019-07-18T06:27:08,42.805,6.029,4330,1995,193.139,59.068,13.291
2019-07-18T06:30:08,42.805,6.029,4330,1995,193.231,59.096,13.290
2019-07-18T06:33:08,42.805,6.029,4330,1995,193.163,59.075,13.290
2019-07-18T06:36:08,42.805,6.029,4330,1995,193.114,59.060,13.291
2019-07-18T06:39:08,42.805,6.029,4330,1995,193.143,59.069,13.290
2019-07-18T06:42:08,42.805,6.029,4330,1995,193.192,59.083,13.290
2019-07-18T06:45:08,42.805,6.029,4330,1995,193.178,59.080,13.291
2019-07-18T06:48:08,42.805,6.029,4330,1995,193.203,59.087,13.290
2019-07-18T06:51:08,42.805,6.029,4330,1995,193.167,59.077,13.291
2019-07-18T06:54:08,42.805,6.029,4330,1995,193.145,59.069,13.290
2019-07-18T06:57:08,42.805,6.029,4330,1995,193.160,59.075,13.291
2019-07-18T07:00:08,42.805,6.029,4330,1995,193.145,59.070,13.291
2019-07-18T07:03:08,42.805,6.029,4330,1995,193.185,59.082,13.290
2019-07-18T07:06:08,42.805,6.029,4330,1995,193.208,59.089,13.291
2019-07-18T07:09:08,42.805,6.029,4330,1995,193.196,59.086,13.291
2019-07-18T07:12:08,42.805,6.029,4330,1995,193.188,59.083,13.291
2019-07-18T07:15:08,42.805,6.029,4330,1995,193.204,59.088,13.291
2019-07-18T07:18:08,42.805,6.029,4330,1995,193.181,59.081,13.291
2019-07-18T07:21:08,42.805,6.029,4330,1995,193.156,59.073,13.291
2019-07-18T07:24:08,42.805,6.029,4330,1995,193.121,59.065,13.292
2019-07-18T07:27:08,42.805,6.029,4330,1995,193.147,59.071,13.291
2019-07-18T07:30:08,42.805,6.029,4330,1995,193.179,59.082,13.292
2019-07-18T07:33:08,42.805,6.029,4330,1995,193.197,59.087,13.291
2019-07-18T07:36:08,42.805,6.029,4330,1995,193.192,59.086,13.292
2019-07-18T07:39:08,42.805,6.029,4330,1995,193.178,59.081,13.292
2019-07-18T07:42:08,42.805,6.029,4330,1995,193.167,59.079,13.292
2019-07-18T07:45:08,42.805,6.029,4330,1995,193.205,59.090,13.292
2019-07-18T07:48:08,42.805,6.029,4330,1995,193.160,59.077,13.293
2019-07-18T07:51:08,42.805,6.029,4330,1995,193.142,59.072,13.293
2019-07-18T07:54:08,42.805,6.029,4330,1995,193.099,59.059,13.293
2019-07-18T07:57:08,42.805,6.029,4330,1995,193.154,59.074,13.292
2019-07-18T08:00:08,42.805,6.029,4330,1995,193.069,59.049,13.292
2019-07-18T08:03:08,42.805,6.029,4330,1995,193.077,59.054,13.294
2019-07-18T08:06:08,42.805,6.029,4330,1995,193.027,59.039,13.294
2019-07-18T08:09:08,42.805,6.029,4330,1995,193.111,59.062,13.292
2019-07-18T08:12:08,42.805,6.029,4330,1995,193.123,59.066,13.293
2019-07-18T08:15:08,42.805,6.029,4330,1995,193.062,59.047,13.292
2019-07-18T08:18:08,42.805,6.029,4330,1995,193.103,59.059,13.292
2019-07-18T08:21:08,42.805,6.029,4330,1995,193.060,59.045,13.292
2019-07-18T08:24:08,42.805,6.029,4330,1995,193.072,59.050,13.292
2019-07-18T08:27:08,42.805,6.029,4330,1995,193.085,59.054,13.292
2019-07-18T08:30:08,42.805,6.029,4330,1995,193.118,59.063,13.292
2019-07-18T08:33:08,42.805,6.029,4330,1995,193.097,59.056,13.292
2019-07-18T08:36:07,42.805,6.029,4330,1995,193.101,59.057,13.291
2019-07-18T08:42:07,42.805,6.029,4330,1995,193.115,59.057,13.288
2019-07-18T08:45:07,42.805,6.029,4330,1995,193.126,59.065,13.291
2019-07-18T08:48:07,42.805,6.029,4330,1995,193.071,59.049,13.292
2019-07-18T08:51:07,42.805,6.029,4330,1995,193.093,59.056,13.292
2019-07-18T08:54:07,42.805,6.029,4330,1995,193.075,59.051,13.292
2019-07-18T08:57:07,42.805,6.029,4330,1995,193.046,59.043,13.293
2019-07-18T09:00:07,42.805,6.029,4330,1995,193.081,59.052,13.292
2019-07-18T09:03:07,42.805,6.029,4330,1995,193.104,59.060,13.292
2019-07-18T09:06:07,42.805,6.029,4330,1995,193.063,59.049,13.294
2019-07-18T09:09:07,42.805,6.029,4330,1995,193.089,59.056,13.293
2019-07-18T09:12:07,42.805,6.029,4330,1995,193.072,59.050,13.293
2019-07-18T09:15:07,42.805,6.029,4330,1995,193.039,59.040,13.293
2019-07-18T09:18:07,42.805,6.029,4330,1995,193.073,59.051,13.293
2019-07-18T09:21:07,42.805,6.029,4330,1995,193.085,59.053,13.292
2019-07-18T09:24:07,42.805,6.029,4330,1995,193.041,59.039,13.292
2019-07-18T09:27:07,42.805,6.029,4330,1995,193.028,59.036,13.292
2019-07-18T09:30:07,42.805,6.029,4330,1995,192.998,59.026,13.291
2019-07-18T09:33:07,42.805,6.029,4330,1995,193.056,59.044,13.292
2019-07-18T09:36:07,42.805,6.029,4330,1995,193.033,59.036,13.291
2019-07-18T09:39:07,42.805,6.029,4330,1995,193.067,59.046,13.291
2019-07-18T09:42:07,42.805,6.029,4330,1995,193.069,59.049,13.292
2019-07-18T09:45:07,42.805,6.029,4330,1995,193.019,59.032,13.291
2019-07-18T09:48:07,42.805,6.029,4330,1995,193.015,59.030,13.291
2019-07-18T09:51:07,42.805,6.029,4330,1995,192.954,59.012,13.291
2019-07-18T09:54:07,42.805,6.029,4330,1995,192.978,59.019,13.291
2019-07-18T09:57:07,42.805,6.029,4330,1995,193.028,59.034,13.291
2019-07-18T10:00:07,42.805,6.029,4330,1995,193.035,59.036,13.291
2019-07-18T10:03:07,42.805,6.029,4330,1995,193.021,59.032,13.291
2019-07-18T10:06:07,42.805,6.029,4330,1995,193.049,59.040,13.290
2019-07-18T10:09:07,42.805,6.029,4330,1995,193.047,59.039,13.290
2019-07-18T10:12:07,42.805,6.029,4330,1995,193.046,59.039,13.290
2019-07-18T10:15:07,42.805,6.029,4330,1995,193.117,59.061,13.290
2019-07-18T10:18:07,42.805,6.029,4330,1995,193.099,59.057,13.291
2019-07-18T10:21:07,42.805,6.029,4330,1995,193.079,59.050,13.291
2019-07-18T10:24:07,42.805,6.029,4330,1995,193.150,59.071,13.290
2019-07-18T10:27:07,42.805,6.029,4330,1995,193.103,59.056,13.290
2019-07-18T10:30:07,42.805,6.029,4330,1995,193.091,59.054,13.291
2019-07-18T10:33:07,42.805,6.029,4330,1995,193.082,59.050,13.290
2019-07-18T10:36:07,42.805,6.029,4330,1995,193.213,59.091,13.291
2019-07-18T10:39:07,42.805,6.029,4330,1995,193.137,59.068,13.291
2019-07-18T10:42:07,42.805,6.029,4330,1995,193.155,59.074,13.291
2019-07-18T10:45:07,42.805,6.029,4330,1995,193.168,59.078,13.291
2019-07-18T10:48:07,42.805,6.029,4330,1995,193.097,59.056,13.291
2019-07-18T10:51:07,42.805,6.029,4330,1995,193.131,59.067,13.292
2019-07-18T10:54:07,42.805,6.029,4330,1995,193.191,59.085,13.292
2019-07-18T10:57:07,42.805,6.029,4330,1995,193.165,59.077,13.291
2019-07-18T11:00:07,42.805,6.029,4330,1995,193.183,59.084,13.292
2019-07-18T11:03:07,42.805,6.029,4330,1995,193.160,59.076,13.292
2019-07-18T11:06:07,42.805,6.029,4330,1995,193.184,59.084,13.292
2019-07-18T11:09:07,42.805,6.029,4330,1995,193.140,59.070,13.292
2019-07-18T11:15:07,42.805,6.029,4330,1995,193.102,59.055,13.289
2019-07-18T11:18:07,42.805,6.029,4330,1995,193.121,59.058,13.288
2019-07-18T11:21:07,42.805,6.029,4330,1995,193.073,59.048,13.291
2019-07-18T11:24:07,42.805,6.029,4330,1995,193.062,59.045,13.291
2019-07-18T11:27:07,42.805,6.029,4330,1995,193.065,59.046,13.291
2019-07-18T11:30:07,42.805,6.029,4330,1995,193.059,59.045,13.292
2019-07-18T11:33:07,42.805,6.029,4330,1995,193.065,59.046,13.291
2019-07-18T11:36:07,42.805,6.029,4330,1995,193.115,59.062,13.292
2019-07-18T11:39:07,42.805,6.029,4330,1995,193.156,59.074,13.291
2019-07-18T11:42:07,42.805,6.029,4330,1995,193.201,59.088,13.292
2019-07-18T11:45:07,42.805,6.029,4330,1995,193.157,59.074,13.291
2019-07-18T11:48:07,42.805,6.029,4330,1995,193.159,59.076,13.292
2019-07-18T11:51:07,42.805,6.029,4330,1995,193.158,59.076,13.292
2019-07-18T11:54:07,42.805,6.029,4330,1995,193.157,59.076,13.292
2019-07-18T11:57:07,42.805,6.029,4330,1995,193.187,59.083,13.291
2019-07-18T12:00:07,42.805,6.029,4330,1995,193.244,59.100,13.291
2019-07-18T12:03:07,42.805,6.029,4330,1995,193.209,59.091,13.292
2019-07-18T12:06:07,42.805,6.029,4330,1995,193.163,59.076,13.291
2019-07-18T12:09:07,42.805,6.029,4330,1995,193.087,59.055,13.293
2019-07-18T12:12:07,42.805,6.029,4330,1995,193.079,59.052,13.292
2019-07-18T12:15:07,42.805,6.029,4330,1995,193.061,59.047,13.293
2019-07-18T12:18:07,42.805,6.029,4330,1995,193.083,59.053,13.292
2019-07-18T12:21:07,42.805,6.029,4330,1995,193.081,59.053,13.292
2019-07-18T12:24:07,42.805,6.029,4330,1995,193.099,59.058,13.292
2019-07-18T12:27:07,42.805,6.029,4330,1995,193.036,59.039,13.292
2019-07-18T12:30:07,42.805,6.029,4330,1995,193.013,59.032,13.293
2019-07-18T12:33:07,42.805,6.029,4330,1995,193.079,59.052,13.292
2019-07-18T12:36:07,42.805,6.029,4330,1995,193.170,59.079,13.292
2019-07-18T12:39:07,42.805,6.029,4330,1995,193.146,59.072,13.292
2019-07-18T12:42:07,42.805,6.029,4330,1995,193.092,59.055,13.292
2019-07-18T12:45:07,42.805,6.029,4330,1995,193.102,59.058,13.291
2019-07-18T12:48:07,42.805,6.029,4330,1995,193.020,59.033,13.292
2019-07-18T12:51:07,42.805,6.029,4330,1995,193.117,59.062,13.292
2019-07-18T12:54:07,42.805,6.029,4330,1995,193.007,59.028,13.291
2019-07-18T12:57:07,42.805,6.029,4330,1995,193.063,59.045,13.291
2019-07-18T13:00:07,42.805,6.029,4330,1995,193.034,59.036,13.291
2019-07-18T13:03:07,42.805,6.029,4330,1995,193.113,59.061,13.291
2019-07-18T13:06:07,42.805,6.029,4330,1995,193.145,59.068,13.289
2019-07-18T13:09:07,42.805,6.029,4330,1995,193.155,59.074,13.291
2019-07-18T13:12:07,42.805,6.029,4330,1995,193.173,59.078,13.290
2019-07-18T13:15:07,42.805,6.029,4330,1995,193.109,59.058,13.290
2019-07-18T13:18:07,42.805,6.029,4330,1995,193.081,59.049,13.290
2019-07-18T13:21:07,42.805,6.029,4330,1995,193.119,59.061,13.290
2019-07-18T13:24:07,42.805,6.029,4330,1995,193.094,59.054,13.290
2019-07-18T13:27:07,42.805,6.029,4330,1995,193.113,59.059,13.290
2019-07-18T13:30:07,42.805,6.029,4330,1995,193.111,59.059,13.290
2019-07-18T13:33:07,42.805,6.029,4330,1995,193.132,59.065,13.290
2019-07-18T13:36:07,42.805,6.029,4330,1995,193.156,59.072,13.290
2019-07-18T13:39:07,42.805,6.029,4330,1995,193.124,59.063,13.290
2019-07-18T13:42:07,42.805,6.029,4330,1995,193.161,59.074,13.290
2019-07-18T13:45:07,42.805,6.029,4330,1995,193.181,59.080,13.290
2019-07-18T13:51:07,42.805,6.029,4330,1995,193.086,59.050,13.289
2019-07-18T13:54:07,42.805,6.029,4330,1995,193.175,59.079,13.290
2019-07-18T13:57:07,42.805,6.029,4330,1995,193.108,59.058,13.290
2019-07-18T14:00:07,42.805,6.029,4330,1995,193.176,59.080,13.291
2019-07-18T14:03:07,42.805,6.029,4330,1995,193.221,59.093,13.291
2019-07-18T14:06:07,42.805,6.029,4330,1995,193.189,59.083,13.291
2019-07-18T14:09:07,42.805,6.029,4330,1995,193.165,59.076,13.291
2019-07-18T14:12:07,42.805,6.029,4330,1995,193.182,59.081,13.290
2019-07-18T14:15:07,42.805,6.029,4330,1995,193.150,59.071,13.290
2019-07-18T14:18:07,42.805,6.029,4330,1995,193.199,59.085,13.290
2019-07-18T14:21:07,42.805,6.029,4330,1995,193.150,59.070,13.289
2019-07-18T14:24:07,42.805,6.029,4330,1995,193.134,59.066,13.290
2019-07-18T14:27:07,42.805,6.029,4330,1995,193.108,59.057,13.290
2019-07-18T14:30:07,42.805,6.029,4330,1995,193.191,59.083,13.290
2019-07-18T14:33:07,42.805,6.029,4330,1995,193.157,59.073,13.290
2019-07-18T14:36:07,42.805,6.029,4330,1995,193.184,59.081,13.290
2019-07-18T14:39:07,42.805,6.029,4330,1995,193.186,59.082,13.290
2019-07-18T14:42:07,42.805,6.029,4330,1995,193.162,59.075,13.290
2019-07-18T14:45:07,42.805,6.029,4330,1995,193.180,59.080,13.290
2019-07-18T14:48:07,42.805,6.029,4330,1995,193.214,59.090,13.290
2019-07-18T14:51:07,42.805,6.029,4330,1995,193.181,59.080,13.290
2019-07-18T14:54:07,42.805,6.029,4330,1995,193.174,59.079,13.291
2019-07-18T14:57:07,42.805,6.029,4330,1995,193.161,59.074,13.290
2019-07-18T15:00:07,42.805,6.029,4330,1995,193.219,59.092,13.291
2019-07-18T15:03:07,42.805,6.029,4330,1995,193.199,59.086,13.291
2019-07-18T15:06:07,42.805,6.029,4330,1995,193.156,59.073,13.291
2019-07-18T15:09:07,42.805,6.029,4330,1995,193.184,59.082,13.291
2019-07-18T15:12:07,42.805,6.029,4330,1995,193.136,59.068,13.291
2019-07-18T15:15:07,42.805,6.029,4330,1995,193.199,59.087,13.291
2019-07-18T15:18:07,42.805,6.029,4330,1995,193.196,59.085,13.291
2019-07-18T15:21:07,42.805,6.029,4330,1995,193.127,59.065,13.291
2019-07-18T15:24:07,42.805,6.029,4330,1995,193.204,59.088,13.291
2019-07-18T15:27:07,42.805,6.029,4330,1995,193.180,59.081,13.291
2019-07-18T15:30:07,42.805,6.029,4330,1995,193.197,59.087,13.291
2019-07-18T15:33:07,42.805,6.029,4330,1995,193.193,59.086,13.291
2019-07-18T15:36:07,42.805,6.029,4330,1995,193.189,59.085,13.292
2019-07-18T15:39:07,42.805,6.029,4330,1995,193.238,59.100,13.292
2019-07-18T15:42:07,42.805,6.029,4330,1995,193.201,59.088,13.292
2019-07-18T15:45:07,42.805,6.029,4330,1995,193.247,59.103,13.292
2019-07-18T15:48:07,42.805,6.029,4330,1995,193.188,59.085,13.292
2019-07-18T15:51:07,42.805,6.029,4330,1995,193.144,59.072,13.292
2019-07-18T15:54:07,42.805,6.029,4330,1995,193.148,59.072,13.292
2019-07-18T15:57:07,42.805,6.029,4330,1995,193.170,59.079,13.292
2019-07-18T16:00:07,42.805,6.029,4330,1995,193.156,59.075,13.292
2019-07-18T16:03:07,42.805,6.029,4330,1995,193.183,59.083,13.291
2019-07-18T16:06:07,42.805,6.029,4330,1995,193.248,59.103,13.292
2019-07-18T16:09:07,42.805,6.029,4330,1995,193.231,59.097,13.291
2019-07-18T16:12:07,42.805,6.029,4330,1995,193.290,59.116,13.292
2019-07-18T16:15:07,42.805,6.029,4330,1995,193.275,59.110,13.291
2019-07-18T16:18:07,42.805,6.029,4330,1995,193.284,59.112,13.291
2019-07-18T16:21:07,42.805,6.029,4330,1995,193.315,59.121,13.290
2019-07-18T16:27:07,42.805,6.029,4330,1995,193.229,59.092,13.288
2019-07-18T16:30:07,42.805,6.029,4330,1995,193.226,59.095,13.291
2019-07-18T16:33:07,42.805,6.029,4330,1995,193.293,59.118,13.293
2019-07-18T16:36:07,42.805,6.029,4330,1995,193.232,59.098,13.292
2019-07-18T16:39:07,42.805,6.029,4330,1995,193.236,59.099,13.292
2019-07-18T16:42:07,42.805,6.029,4330,1995,193.279,59.111,13.291
2019-07-18T16:45:07,42.805,6.029,4330,1995,193.253,59.106,13.293
2019-07-18T16:48:07,42.805,6.029,4330,1995,193.279,59.112,13.292
2019-07-18T16:51:07,42.805,6.029,4330,1995,193.281,59.113,13.292
2019-07-18T16:54:07,42.805,6.029,4330,1995,193.284,59.115,13.292
2019-07-18T16:57:07,42.805,6.029,4330,1995,193.289,59.115,13.292
2019-07-18T17:00:07,42.805,6.029,4330,1995,193.282,59.113,13.292
2019-07-18T17:03:07,42.805,6.029,4330,1995,193.277,59.112,13.292
2019-07-18T17:06:07,42.805,6.029,4330,1995,193.262,59.107,13.291
2019-07-18T17:09:07,42.805,6.029,4330,1995,193.252,59.103,13.291
2019-07-18T17:12:07,42.805,6.029,4330,1995,193.248,59.102,13.291
2019-07-18T17:15:07,42.805,6.029,4330,1995,193.263,59.107,13.291
2019-07-18T17:18:07,42.805,6.029,4330,1995,193.321,59.124,13.291
2019-07-18T17:21:07,42.805,6.029,4330,1995,193.327,59.125,13.290
2019-07-18T17:24:07,42.805,6.029,4330,1995,193.348,59.132,13.290
2019-07-18T17:27:07,42.805,6.029,4330,1995,193.358,59.135,13.291
2019-07-18T17:30:07,42.805,6.029,4330,1995,193.384,59.142,13.290
2019-07-18T17:33:07,42.805,6.029,4330,1995,193.390,59.144,13.290
2019-07-18T17:36:07,42.805,6.029,4330,1995,193.381,59.141,13.290
2019-07-18T17:39:07,42.805,6.029,4330,1995,193.434,59.157,13.290
2019-07-18T17:42:07,42.805,6.029,4330,1995,193.404,59.148,13.289
2019-07-18T17:45:07,42.805,6.029,4330,1995,193.434,59.157,13.290
2019-07-18T17:48:07,42.805,6.029,4330,1995,193.340,59.128,13.290
2019-07-18T17:51:07,42.805,6.029,4330,1995,193.417,59.152,13.290
2019-07-18T17:54:07,42.805,6.029,4330,1995,193.435,59.157,13.289
2019-07-18T17:57:07,42.805,6.029,4330,1995,193.376,59.139,13.290
2019-07-18T18:00:07,42.805,6.029,4330,1995,193.438,59.158,13.290
2019-07-18T18:03:07,42.805,6.029,4330,1995,193.364,59.136,13.290
2019-07-18T18:06:07,42.805,6.029,4330,1995,193.431,59.156,13.290
2019-07-18T18:09:07,42.805,6.029,4330,1995,193.379,59.140,13.290
2019-07-18T18:12:07,42.805,6.029,4330,1995,193.397,59.146,13.290
2019-07-18T18:15:07,42.805,6.029,4330,1995,193.389,59.143,13.290
2019-07-18T18:18:07,42.805,6.029,4330,1995,193.404,59.148,13.290
2019-07-18T18:21:07,42.805,6.029,4330,1995,193.414,59.151,13.290
2019-07-18T18:24:07,42.805,6.029,4330,1995,193.436,59.158,13.290
2019-07-18T18:27:07,42.805,6.029,4330,1995,193.390,59.144,13.290